Погода в Корликах

Россия / Ханты-Мансийский автономный округ - Югра     61°32′00″N   82°25′14″E
темп.,
°C
ветер,
м/с
пор.,
м/с
влажн.,
%
обл.,
%
осадки,
мм/ч
давл.,
гПа
погр.,
м
18 апреля, вс
вс1823:00−8с51094100 3.2 1009422
02:00−11ссз5108798 0.8 1009401
05:00−15ссз4119351 0.8 1010335
08:00−13ссз5784100 0.0 1012578
11:00−10с5775100 0.1 10141068
14:00−9с6767100 0.1 10151311
17:00−10с4774100 0.1 10161015
20:00−14с5108579 0.0 1016488
19 апреля, пн
пн1923:00−17ссз4119019 0.0 1016311
02:00−18ссз5119052 0.0 1015433
05:00−19зсз5129063 0.0 1015454
08:00−16сз71289100 0.2 1014832
11:00−11сз81288100 0.8 10141053
14:00−8сз81380100 0.8 10151287
17:00−8сз81379100 0.8 10171092
20:00−11сз71384100 0.0 1019749
20 апреля, вт
вт2023:00−13сз6139098 0.1 1020542
02:00−16зсз4119324 0.0 1021295
05:00−17зсз4109417 0.0 1021259
08:00−11з478685 0.0 1020435
11:00−7зюз4674100 0.0 1018917
14:00−4юз3569100 0.1 10171165
17:00−5ююз3586100 0.3 1017683
20:00−9вюв239754 0.1 101836
21 апреля, ср
ср2123:00−12в349654 0.1 102052
02:00−13всв349425 0.0 102255
05:00−14св25925 0.0 102678
08:00−7св34805 0.0 1028307
11:00−4с34715 0.0 1029666
14:00−2с346971 0.0 1031948
17:00−3ссз24745 0.0 1032569
20:00−9з119019 0.0 103410
22 апреля, чт
чт2223:00−12зсз119727 0.0 103520
02:00−14ссз119845 0.0 103715
05:00−12ссз11936 0.0 103934
08:00−5зсз23775 0.0 1039274
11:00−2зсз23675 0.0 1040564
14:000з24685 0.0 1040640
17:000з24745 0.0 1042397
20:00−6зюз11925 0.0 104310